TimeEST,TemperatureF,Dew PointF,Humidity,Sea Level PressureIn,VisibilityMPH,Wind Direction,Wind SpeedMPH,Gust SpeedMPH,PrecipitationIn,Events,Conditions,WindDirDegrees,DateUTC
12:54 AM,60.1,57.9,93,30.20,10.0,SSW,6.9,-,N/A,,Mostly Cloudy,210,2012-12-05 05:54:00
1:54 AM,59.0,57.0,93,30.20,10.0,SSW,6.9,-,N/A,,Clear,210,2012-12-05 06:54:00
2:54 AM,59.0,57.0,93,30.19,10.0,SW,5.8,-,N/A,,Clear,220,2012-12-05 07:54:00
3:54 AM,57.9,55.9,93,30.17,10.0,SSW,4.6,-,N/A,,Clear,210,2012-12-05 08:54:00
4:54 AM,54.0,54.0,100,30.16,5.0,Calm,Calm,-,N/A,,Clear,0,2012-12-05 09:54:00
5:54 AM,55.9,54.0,93,30.17,10.0,SW,5.8,-,N/A,,Clear,230,2012-12-05 10:54:00
6:54 AM,54.0,52.0,93,30.18,10.0,SW,4.6,-,N/A,,Clear,230,2012-12-05 11:54:00
7:54 AM,55.0,53.1,93,30.19,9.0,WSW,4.6,-,N/A,,Clear,240,2012-12-05 12:54:00
9:54 AM,66.9,55.0,66,30.19,10.0,WSW,8.1,-,N/A,,Clear,250,2012-12-05 14:54:00
10:54 AM,69.1,53.1,57,30.18,10.0,West,9.2,-,N/A,,Partly Cloudy,260,2012-12-05 15:54:00
11:54 AM,70.0,51.1,51,30.16,10.0,WSW,12.7,-,N/A,,Overcast,240,2012-12-05 16:54:00
12:54 PM,70.0,51.1,51,30.13,10.0,WSW,8.1,-,N/A,,Overcast,250,2012-12-05 17:54:00
1:54 PM,71.1,52.0,51,30.10,10.0,WSW,10.4,-,N/A,,Overcast,250,2012-12-05 18:54:00
2:54 PM,71.1,53.1,53,30.09,10.0,West,6.9,-,N/A,,Overcast,280,2012-12-05 19:54:00
3:54 PM,66.0,57.9,75,30.10,10.0,West,6.9,-,0.00,,Overcast,260,2012-12-05 20:54:00
4:54 PM,64.9,57.9,78,30.10,10.0,Calm,Calm,-,N/A,,Overcast,0,2012-12-05 21:54:00
5:54 PM,64.9,57.9,78,30.12,10.0,Calm,Calm,-,N/A,,Overcast,0,2012-12-05 22:54:00
6:54 PM,61.0,57.0,87,30.15,3.0,North,8.1,-,0.02,Rain,Light Rain,360,2012-12-05 23:54:00
7:04 PM,60.8,57.2,88,30.16,2.5,NNE,6.9,-,0.01,Rain,Light Rain,20,2012-12-06 00:04:00
7:14 PM,60.8,57.2,88,30.16,3.0,NNE,9.2,-,0.02,Rain,Light Rain,30,2012-12-06 00:14:00
7:54 PM,60.1,57.0,90,30.17,9.0,North,5.8,-,0.02,,Overcast,10,2012-12-06 00:54:00
8:54 PM,57.9,55.0,90,30.17,10.0,NNE,8.1,-,0.01,,Overcast,20,2012-12-06 01:54:00
9:27 PM,57.2,55.4,94,30.18,9.0,NNE,4.6,-,0.00,,Overcast,20,2012-12-06 02:27:00
9:54 PM,57.9,55.9,93,30.18,7.0,NE,5.8,-,0.01,Rain,Light Rain,40,2012-12-06 02:54:00
10:31 PM,57.2,55.4,94,30.18,5.0,ENE,5.8,-,0.01,Rain,Light Rain,60,2012-12-06 03:31:00
10:54 PM,57.9,55.9,93,30.18,4.0,NE,5.8,-,0.02,Rain,Light Rain,40,2012-12-06 03:54:00
11:28 PM,57.2,55.4,94,30.18,4.0,ENE,8.1,-,0.02,Rain,Light Rain,60,2012-12-06 04:28:00
11:35 PM,55.4,53.6,94,30.18,5.0,ENE,9.2,-,0.02,Rain,Light Rain,60,2012-12-06 04:35:00
11:48 PM,55.4,53.6,94,30.19,9.0,ENE,10.4,-,0.02,,Overcast,70,2012-12-06 04:48:00
11:54 PM,55.0,52.0,89,30.19,10.0,ENE,10.4,-,0.02,,Overcast,70,2012-12-06 04:54:00